Location: Ajisawe
(8.4333°N, 4.3833°E)
Time: 14:31:31
(UTC+00:00)

ADEOS - Pass Details

Date: 07 June 2020
Orbit: 793 x 794 km, 98.9° (Epoch: 07 July)

Event Time Altitude Azimuth Distance (km) Brightness Sun altitude
Rises 03:10:16 0° 23° (NNE) 3,280 7.5 -30.1°
Reaches altitude 10° 03:12:40 10° 29° (NNE) 2,352 6.7 -29.6°
Maximum altitude 03:17:38 47° 102° (ESE) 1,047 4.4 -28.6°
Enters shadow 03:18:58 38° 142° (SE) 1,190 4.4 -28.3°
